COSMOS 2251 DEB

Satellite information

Favourite Embed

Satellite Type and Status

DEBRISIN ORBIT

Key statistics

Satellite COSMOS 2251 DEB at a glance.

Uptime

11710

Days in orbit

Revolutions

≈ 14.5

Per day

Orbit

LEO

Low Earth Orbit

Inclination

73.9

Latest

Satellite identification and parameters

Extended collection of information and parameters for COSMOS 2251 DEB.

Object identification

Identified? True

Debris? True

Object name: COSMOS 2251 DEB

International designator: 1993-036AUD

Object number (NORAD): 35890

Object ID (CCSDS): 35890

Country: COMMONWEALTH OF INDEPENDENT STATES (CIS)

Current information (Y/N): Y

RCS size: SMALL

Orbital parameters

Period: 99.01 minutes

Inclination: 73.9361 deg

SMA: 7089.476 km

Apoapsis: 753.988 km

Periapsis: 668.693 km

RAAN: 189.6607 deg

Eccentricy: 0.0060156

Argument of periapsis: 348.2693 deg

Mean anomaly: 11.7062 deg

Mean motion: 14.54392308 rev/day

Mean motion (dot): 0.00004833 rev/day2

B* drag term: 0.0011162 1/REarth

Two-line elements (TLE)

Creation date: July 5, 2025, 6:46 a.m.

Reference frame: TEME

Reference center: EARTH

Epoch: July 4, 2025, 5:54 p.m. UTC

TLE line 0: 0 COSMOS 2251 DEB

TLE line 1: 1 35890U 93036AUD 25185.74632350 .00004833 00000-0 11162-2 0 9998

TLE line 2: 2 35890 73.9361 189.6607 0060156 348.2693 11.7062 14.54392308829685

Live tracking on map

Real-time ground track for satellite COSMOS 2251 DEB.

In-orbit conjunctions

A list of the most updated potential collisions computed for object COSMOS 2251 DEB.

Target Orbit TCA Probability of collision Miss distance Type
CZ-6A DEB LEO 2025-01-12 14:18:36 0.0001825944 768.0 (m) DEBRIS
SL-8 R/B LEO 2024-06-08 11:17:08 0.0001334337 156.0 (m) ROCKET BODY

Associated space launch

Military communications satellite. Destroyed in a collision with Iridium 33.

COSMOS 2251 DEB was lifted into orbit during the mission ‘Kosmos-3M | Strela-2M 51’, on board a Kosmos-3M space rocket.

The launch took place on June 16, 1993, 4:17 a.m. from 132/1 (132L).

For more information about the launch, click the button.

Launch to space Kosmos-3M | Strela-2M 51
Kosmos-3M | Strela-2M 51

Agency: N/A

Status: Launch Successful

Launch date: June 16, 1993, 4:17 a.m. UTC

Rocket: Kosmos-3M

Launch pad: 132/1 (132L)

Location: Plesetsk Cosmodrome, Russian Federation

...

Latest news about this satellite

There are no fresh news available about this satellite. Check back as we update our databases every day.


Newsletter sign-up

Weekly statistics, charts and insights to help you stay on top of the space industry.